Regional Weather Roundup
Issued by NWS Spokane, WA

Home | Current Version | Previous Version | Text Only | Print | Product List | Glossary On
Versions: 1 2 3 4 5 6 7 8 9 10 11 12 13 14 15 16 17 18 19 20 21 22 23 24 25 26 27 28 29 30 31 32 33 34 35 36 37 38 39 40 41 42 43 44 45 46 47 48 49 50
000
NZUS01 KOTX 272110
RWROTX
EASTERN WASHINGTON/NORTHERN IDAHO ROUNDUP
NATIONAL WEATHER SERVICE, SPOKANE WA
100 PM PST FRI FEB 27 2015

Note: "fair" indicated few or no clouds below 12,000 feet with no
significant weather and/or obstructions to visibility.

...NORTHEAST WASHINGTON AND NORTHERN IDAHO PANHANDLE...

CITY           SKY/WX    TMP DP  RH WIND       PRES   REMARKS
SPOKANE INTL   PTSUNNY   47  26  44 NE12      29.77F
SPOKANE DOWNTO MOSUNNY   50  25  37 NE10      29.79F
COEUR D ALENE  MOSUNNY   48  25  40 N10G16    29.77F
DEER PARK      MOSUNNY   47  25  42 NE14G23   29.80F
SANDPOINT      CLOUDY    45  23  42 N12       29.84F
BONNERS FERRY  CLOUDY    39  18  41 NE5       29.88S

...SOUTHEAST WASHINGTON AND SOUTHERN IDAHO PANHANDLE...

CITY           SKY/WX    TMP DP  RH WIND       PRES   REMARKS
WALLA WALLA    CLOUDY    52  34  50 NW5       29.70F
PULLMAN/MOSCOW MOSUNNY   48  28  46 SE10      29.73F
LEWISTON       MOSUNNY   51  38  60 CALM      29.72F
LOWELL           N/A     53  29  39 S3        29.72F

...COLUMBIA BASIN...

CITY           SKY/WX    TMP DP  RH WIND       PRES   REMARKS
EPHRATA        CLOUDY    51  30  44 NE14      29.78F
MOSES LAKE     CLOUDY    53  31  42 NE13G22   29.78F
TRI CITIES     CLOUDY    54  37  52 NE7       29.74F
HERMISTON      CLOUDY    50  37  61 N7        29.72F
PENDLETON      LGT RAIN  45  40  82 W13       29.69S

...EAST SLOPES CASCADES...

CITY           SKY/WX    TMP DP  RH WIND       PRES   REMARKS
THE DALLES     LGT RAIN  47  43  86 NE5       29.75F
YAKIMA         LGT RAIN  47  40  76 W8        29.78F
ELLENSBURG     CLOUDY    44  37  76 NW9       29.77F
WENATCHEE      CLOUDY    44  37  76 W8        29.82F
OMAK           CLOUDY    43  32  65 N20G29    29.86S

...SOUTHERN BRITISH COLUMBIA...

CITY           SKY/WX    TMP DP  RH WIND       PRES   REMARKS
PENTICTON      PTSUNNY   45  28  53 NE13G20   29.90F
CASTLEGAR      CLOUDY    37  32  81 N9        29.91F
CRANBROOK      PTSUNNY   34  16  47 NE3       29.92F

...WESTERN MONTANA...

CITY           SKY/WX    TMP DP  RH WIND       PRES   REMARKS
MISSOULA       CLOUDY    38  12  34 SE15      29.84F

...NEIGHBORING CITIES...

CITY           SKY/WX    TMP DP  RH WIND       PRES   REMARKS
SEATTLE        CLOUDY    50  45  83 N9        29.76S
CALGARY        FLURRIES  18   9  68 N15       30.08S WCI   3



USA.gov is the U.S. government's official web portal to all federal, state and local government web resources and services.